Tracking 19644 objects as of 24-Apr-2019
HD Live streaming from Space Station
objects crossing your sky now

THORAD DELTA 1 DEB

Track THORAD DELTA 1 DEB now!
10-day predictions


NORAD ID: 8299
Int'l Code: 1974-089BG
Perigee: 740.3 km
Apogee: 1,494.6 km
Inclination: 102.2 °
Period: 107.5 minutes
Semi major axis: 7488 km
RCS: 0.0568 m2 (small)
Launch date: November 15, 1974
Source: United States (US)
Launch site: AIR FORCE WESTERN TEST RANGE (AFWTR)

Note: This is SATELLITE DEBRIS
aabbcc
Your satellite tracking list
Your tracking list is empty




NASA's NSSDC Master Catalog

Two Line Element Set (TLE):
1  8299U 74089BG  19113.67692873  .00001661  00000-0  15118-2 0  9991
2  8299 102.2096  10.7288 0503670 262.8222  91.5396 13.39717859120606
Source of the keplerian elements: AFSPC